Washington, VA

9:28 AM EST on December 11, 2019 (GMT -0500)
Ronald Reagan Washington National

Weather History for KDCA - October, 2019

Change the Weather History Date:

Monday, October 14, 2019

  Actual Average Record
Temperature  
Mean Temperature 65 °F 60 °F  
Max Temperature 77 °F 69 °F 87 °F (1975)
Min Temperature 52 °F 51 °F 32 °F (1875)
Degree Days  
Heating Degree Days 0 6  
Month to date heating degree days 10 63  
Since 1 July heating degree days 10 87  
Cooling Degree Days 0 1  
Month to date cooling degree days 65 26  
Year to date cooling degree days 2060 1539  
Growing Degree Days 14 (Base 50)    
Moisture  
Dew Point 49 °F    
Average Humidity 60    
Maximum Humidity 93    
Minimum Humidity 27    
Precipitation  
Precipitation 0.00 in 0.12 in 3.36 in (1995)
Month to date precipitation 0.14 1.55  
Year to date precipitation 31.17 31.67  
Snow  
Snow 0.00 in 0.00 in - ()
Month to date snowfall 0.0 0.0  
Since 1 July snowfall 0.0 0.0  
Snow Depth 0.00 in    
Sea Level Pressure  
Sea Level Pressure 30.02 in    
Wind  
Wind Speed 4 mph (SW)    
Max Wind Speed 14 mph    
Max Gust Speed 17 mph    
Visibility 10 miles    
Events      
T = Trace of Precipitation, MM = Missing Value Source: NWS Daily Summary

Daily Weather History Graph

Daily Weather History Graph

Search for Another Location

Airport or City:

Astronomy

Oct. 14, 2019 Rise Set
Actual Time 7:16 AM EDT 6:31 PM EDT
Civil Twilight 6:49 AM EDT 6:58 PM EDT
Nautical Twilight 6:18 AM EDT 7:29 PM EDT
Astronomical Twilight 5:47 AM EDT 7:59 PM EDT
Moon 7:20 PM EDT (10/14) 7:46 AM EDT (10/14)
Length of Visible Light 12h 08m
Length of Day
11h 15m
Waxing Gibbous, 99% of the Moon is Illuminated
Oct 14
Waxing Gibbous
Oct 21
Last Quarter
Oct 27
New
Nov 4
First Quarter
Nov 12
Full

Hourly Weather History & Observations

Time (EDT) Temp. Dew Point Humidity Pressure Visibility Wind Dir Wind Speed Gust Speed Precip Events Conditions
12:52 AM 60.1 °F 53.1 °F 78% 30.01 in 10.0 mi Calm Calm - N/A   Mostly Cloudy
1:52 AM 57.9 °F 54.0 °F 87% 30.00 in 10.0 mi Calm Calm - N/A   Clear
1:54 AM 57.9 °F 54.0 °F 87% 30.00 in 10.0 mi Calm Calm - N/A   Partly Cloudy
2:52 AM 55.9 °F 53.1 °F 90% 29.98 in 10.0 mi Calm Calm - N/A   Partly Cloudy
3:52 AM 55.0 °F 52.0 °F 89% 29.98 in 10.0 mi WSW 3.5 mph - N/A   Partly Cloudy
4:52 AM 55.0 °F 52.0 °F 89% 29.97 in 10.0 mi Calm Calm - N/A   Partly Cloudy
5:52 AM 54.0 °F 51.1 °F 90% 29.99 in 10.0 mi Calm Calm - N/A   Partly Cloudy
6:52 AM 53.1 °F 50.0 °F 89% 30.02 in 10.0 mi NNW 5.8 mph - N/A   Scattered Clouds
7:52 AM 54.0 °F 50.0 °F 86% 30.04 in 9.0 mi Calm Calm - N/A   Scattered Clouds
9:52 AM 60.1 °F 53.1 °F 78% 30.06 in 10.0 mi SE 3.5 mph - N/A   Clear
10:52 AM 63.0 °F 53.1 °F 70% 30.06 in 10.0 mi South 5.8 mph - N/A   Clear
11:52 AM 68.0 °F 51.1 °F 55% 30.05 in 10.0 mi ENE 4.6 mph - N/A   Clear
12:52 PM 73.0 °F 39.0 °F 29% 30.03 in 10.0 mi North - - N/A   Clear
12:54 PM 73.0 °F 37.9 °F 28% 30.03 in 10.0 mi West 5.8 mph - N/A   Clear
1:52 PM 73.0 °F 46.0 °F 38% 30.01 in 10.0 mi SSE 8.1 mph - N/A   Clear
2:52 PM 75.9 °F 39.9 °F 27% 29.98 in 10.0 mi SW 6.9 mph - N/A   Clear
3:52 PM 77.0 °F 41.0 °F 28% 29.97 in 10.0 mi SSW 11.5 mph - N/A   Clear
4:52 PM 75.9 °F 42.1 °F 30% 29.97 in 10.0 mi SW 11.5 mph - N/A   Clear
5:52 PM 72.0 °F 51.1 °F 48% 29.98 in 10.0 mi South 10.4 mph - N/A   Clear
6:52 PM 68.0 °F 52.0 °F 56% 29.99 in 10.0 mi SSW 5.8 mph - N/A   Clear
7:52 PM 66.9 °F 50.0 °F 54% 30.01 in 10.0 mi SSW 5.8 mph - N/A   Clear
8:52 PM 64.9 °F 51.1 °F 61% 30.02 in 10.0 mi Calm Calm - N/A   Clear
9:52 PM 64.0 °F 51.1 °F 63% 30.05 in 10.0 mi NW 11.5 mph - N/A   Clear
10:52 PM 63.0 °F 46.9 °F 56% 30.06 in 10.0 mi NNW 6.9 mph - N/A   Clear
11:52 PM 62.1 °F 46.0 °F 56% 30.08 in 10.0 mi North 3.5 mph - N/A   Clear